Regional Weather Roundup
Issued by NWS Northern Indiana

Home | Current Version | Previous Version | Graphics & Text | Print | Product List | Glossary On
Versions: 1 2 3 4 5 6 7 8 9 10 11 12 13 14 15 16 17 18 19 20 21 22 23 24 25 26 27 28 29 30 31 32 33 34 35 36 37 38 39 40 41 42 43 44 45 46 47 48 49 50
000
ASUS43 KIWX 020110
RWRIWX

KIWX WEATHER ROUNDUP
NATIONAL WEATHER SERVICE NORTHERN INDIANA
900 PM EDT TUE SEP 01 2015

NOTE: "FAIR" INDICATES FEW OR NO CLOUDS BELOW 12,000 FEET WITH NO
SIGNIFICANT WEATHER AND/OR OBSTRUCTIONS TO VISIBILITY.

* THESE STATIONS ARE NOT UNDER NWS QUALITY CONTROL. THEY ALSO MAY NOT
  REPORT WEATHER SUCH AS PRECIPITATION OR FOG.

INZ001>027-020200-
NORTHERN INDIANA

CITY           SKY/WX    TMP DP  RH WIND       PRES   REMARKS
GARY*          PTCLDY    82  70  65 S7        30.03R
VALPARAISO     CLEAR     78  70  76 S6        30.05R
MICHIGAN CITY* CLEAR     77  70  78 S5        30.04R
LAPORTE*       CLEAR     79  75  89 SW7       30.05R
KNOX*          CLEAR     75  68  78 SW5       30.04R
SOUTH BEND     CLEAR     78  69  73 S5        30.05R
ELKHART*       CLEAR     77  72  83 SW3       30.06R
GOSHEN         CLEAR     76  69  79 S7        30.06R
MONTICELLO*    CLEAR     76  70  81 CALM      30.05S
LOGANSPORT*    CLEAR     73  63  68 SW5       30.08R HAZE
ROCHESTER*     CLEAR     79  70  73 SW7       30.07R
WARSAW*        CLEAR     77  68  73 CALM      30.06S
ANGOLA*        CLEAR     75  72  88 S3        30.07R
FORT WAYNE     PTCLDY    74  68  81 S7        30.09R
HUNTINGTON*    CLEAR     75  68  77 CALM      30.08R
PERU/GRISSOM   CLEAR     73  67  80 SW5       30.07R
MARION*        CLEAR     72  64  73 SW3       30.09R

$$
INZ028>050-020200-
CENTRAL INDIANA

CITY           SKY/WX    TMP DP  RH WIND       PRES   REMARKS
LAFAYETTE      CLEAR     76  67  73 CALM      30.06S
KOKOMO*        CLEAR     75  63  64 SW6       30.08R
MUNCIE*        CLEAR     75  68  78 S3        30.10R
INDIANAPOLIS   PTCLDY    75  65  70 SW6       30.09R

$$
MIZ043>046-050>051-056>058-064>065-071>073-077>080-020200-
SOUTHWEST LOWER MICHIGAN

CITY           SKY/WX    TMP DP  RH WIND       PRES   REMARKS
BATTLE CREEK   CLEAR     77  69  76 S5        30.06R
BENTON HARBOR  CLEAR     77  72  84 SE3       30.02R
COLDWATER*     CLEAR     73  69  87 CALM      30.07R
HILLSDALE*     CLEAR     75  72  91 CALM      30.09R
HOLLAND        CLEAR     76  70  82 S5        30.03R
GRAND RAPIDS   PTCLDY    78  73  84 SW5       30.03R
KALAMAZOO      CLEAR     78  70  76 S3        30.05R
STURGIS*       CLEAR     73  72  94 S3        30.06R
THREE RIVERS*  FAIR      75  70  83 CALM      30.06R

$$
OHZ001>008-015>018-024>025-020200-
NORTHWEST OHIO

CITY           SKY/WX    TMP DP  RH WIND       PRES   REMARKS
WAUSEON*       FAIR      75  72  88 SW6       30.07R
DEFIANCE       CLEAR     78  70  76 SW6       30.07R
FINDLAY        PTCLDY    75  67  76 SW7       30.07S
TOLEDO EXPRESS CLEAR     78  69  73 SW8       30.06R
TOLEDO METCALF CLEAR     80  67  64 SW8       30.06R
LIMA           MOCLDY    75  67  76 SW5       30.09S

$$
AND FOR LAKE MICHIGAN COASTAL AND OPEN LAKE BUOY OBSERVATIONS

STATION/POSITION TEMP    WIND        PRES    VSBY  WAVE
                 AIR SEA DIR/SP/G                  HT/PER
                 (F)     (DEG/KT/KT) (MB)    (MI)  (FT/S)
CALUMET HARBOR    84     200/  6/ 10   N/A
MICHIGAN CITY     82     170/  8/  9   N/A
BURNS HARBOR      83     180/  8/ 12 1016.9R
SAINT JOSEPH      81     160/  4/  9 1016.9F
SOUTH LAKE BUOY   74 70  180/ 10/ 12 1015.2R
4 MI NW BRIDGMAN  77 73  220/  6/  6   N/A           1
MICHIGAN CITY     78 73  210/  8/ 10   N/A           1

$$
&&


USA.gov is the U.S. government's official web portal to all federal, state and local government web resources and services.